Terug naar catalogus

SATCOM 3 DEB

LostHEO
NORAD 49957·DEBRIS·🇺🇸 United States

Gelanceerd Dec 7, 1979 vanaf Cape Canaveral Space Force Station

Loading…

Volgende Passages (komende 24 uur)

TLE

VerouderdSource: Space-Track

Epoch: Jul 26, 2026, 05:31 UTC

1 49957U 79101AB  26207.22988501 -.00000156  00000-0  00000+0 0  9996
2 49957   8.7167  99.5679 4820852  72.4471  51.1270  1.81982750 84283

Volg SATCOM 3 DEB in realtime met AllMySat

Download on the App Store